Weather History for Ft Lauderdale, FL

Change the Weather History Date:

Thursday, October 9, 2014

  Actual Average Record
Temperature  
Mean Temperature 84 °F 82 °F  
Max Temperature 88 °F 87 °F 98 °F (2000)
Min Temperature 80 °F 76 °F 56 °F (1920)
Degree Days  
Heating Degree Days 0 0  
Month to date heating degree days 0 0  
Since 1 July heating degree days 0 0  
Cooling Degree Days 19 17  
Month to date cooling degree days 160 154  
Year to date cooling degree days 4025 3866  
Growing Degree Days 34 (Base 50)    
Moisture  
Dew Point 72 °F    
Average Humidity 70    
Maximum Humidity 79    
Minimum Humidity 61    
Precipitation  
Precipitation 0.00 in 0.29 in 3.20 in (1942)
Month to date precipitation 1.03 2.51  
Year to date precipitation 55.00 52.17  
Snow  
Snow 0.00 in - - ()
Month to date snowfall 0.0  
Since 1 July snowfall 0.0  
Since 1 September snowfall 0.0  
Snow Depth 0.00 in    
Sea Level Pressure  
Sea Level Pressure 30.02 in    
Wind  
Wind Speed 10 mph (ENE)    
Max Wind Speed 20 mph    
Max Gust Speed 25 mph    
Visibility 10 miles    
Events      
T = Trace of Precipitation, MM = Missing Value Source: NWS Daily Summary

Daily Weather History Graph

Daily Weather History Graph

Search for Another Location

Airport:

Trip Planner

Search our weather history database for the weather conditions in past years. The results will help you decide how hot, cold, wet, or windy it might be!

Date:

Astronomy

Oct. 09, 2014 Rise Set
Actual Time 7:16 AM EDT 6:58 PM EDT
Civil Twilight 6:53 AM EDT 7:21 PM EDT
Nautical Twilight 6:26 AM EDT 7:48 PM EDT
Astronomical Twilight 6:00 AM EDT 8:15 PM EDT
Moon 8:03 PM EDT (10/9) 8:22 AM EDT (10/9)
Length of Visible Light 12h 28m
Length of Day
11h 42m
Full, 98% of the Moon is Illuminated
Oct 9
Full
Oct 15
Last Quarter
Oct 23
New
Oct 30
First Quarter
Nov 6
Full

Hourly Weather History & Observations

Time (EDT) Temp. Heat Index Dew Point Humidity Pressure Visibility Wind Dir Wind Speed Gust Speed Precip Events Conditions
12:53 AM 82.0 °F 87.4 °F 73.0 °F 74% 30.04 in 10.0 mi ENE 10.4 mph - N/A   Mostly Cloudy
1:53 AM 82.0 °F 87.4 °F 73.0 °F 74% 30.04 in 10.0 mi ENE 10.4 mph - N/A   Mostly Cloudy
2:53 AM 82.0 °F 86.7 °F 72.0 °F 71% 30.02 in 10.0 mi ENE 6.9 mph - N/A   Partly Cloudy
3:53 AM 81.0 °F 85.8 °F 73.0 °F 77% 30.02 in 10.0 mi NE 5.8 mph - N/A   Partly Cloudy
4:53 AM 81.0 °F 85.8 °F 73.0 °F 77% 30.02 in 10.0 mi ENE 5.8 mph - N/A   Partly Cloudy
5:53 AM 81.0 °F 85.8 °F 73.0 °F 77% 30.02 in 10.0 mi NE 4.6 mph - N/A   Scattered Clouds
6:53 AM 81.0 °F 85.8 °F 73.0 °F 77% 30.03 in 10.0 mi NE 4.6 mph - N/A   Mostly Cloudy
7:53 AM 81.0 °F 85.8 °F 73.0 °F 77% 30.04 in 10.0 mi NNE 3.5 mph - N/A   Scattered Clouds
8:53 AM 84.0 °F 90.2 °F 73.0 °F 69% 30.05 in 10.0 mi NE 8.1 mph - N/A   Mostly Cloudy
9:53 AM 86.0 °F 93.0 °F 73.0 °F 65% 30.06 in 10.0 mi NE 13.8 mph - N/A   Scattered Clouds
10:53 AM 84.9 °F 91.4 °F 73.0 °F 67% 30.06 in 10.0 mi NE 10.4 mph 21.9 mph N/A   Mostly Cloudy
11:14 AM 87.1 °F 95.4 °F 73.9 °F 65% 30.06 in 10.0 mi East 11.5 mph 21.9 mph N/A   Mostly Cloudy
11:53 AM 87.1 °F 95.4 °F 73.9 °F 65% 30.05 in 10.0 mi East 13.8 mph - N/A   Mostly Cloudy
12:53 PM 88.0 °F 95.6 °F 73.0 °F 61% 30.04 in 10.0 mi ENE 15.0 mph - N/A   Scattered Clouds
1:53 PM 87.1 °F 94.5 °F 73.0 °F 63% 30.02 in 10.0 mi East 15.0 mph 23.0 mph N/A   Mostly Cloudy
2:53 PM 87.1 °F 94.5 °F 73.0 °F 63% 30.00 in 10.0 mi East 16.1 mph - N/A   Mostly Cloudy
3:53 PM 86.0 °F 92.2 °F 72.0 °F 63% 29.99 in 10.0 mi ENE 15.0 mph - N/A   Scattered Clouds
4:53 PM 86.0 °F 91.5 °F 71.1 °F 61% 29.98 in 10.0 mi ENE 16.1 mph 23.0 mph N/A   Partly Cloudy
5:53 PM 84.9 °F 88.8 °F 69.1 °F 59% 29.98 in 10.0 mi ENE 11.5 mph - N/A   Scattered Clouds
6:53 PM 82.9 °F 87.5 °F 71.1 °F 67% 29.99 in 10.0 mi ENE 10.4 mph - N/A   Scattered Clouds
7:53 PM 82.0 °F 86.3 °F 71.1 °F 69% 30.00 in 10.0 mi ENE 6.9 mph - N/A   Partly Cloudy
8:53 PM 82.0 °F 85.5 °F 69.1 °F 65% 30.00 in 10.0 mi ENE 9.2 mph - N/A   Partly Cloudy
9:53 PM 82.0 °F 85.5 °F 69.1 °F 65% 30.02 in 10.0 mi East 11.5 mph - N/A   Partly Cloudy
10:53 PM 82.0 °F 86.3 °F 71.1 °F 69% 30.03 in 10.0 mi ENE 9.2 mph - N/A   Partly Cloudy
11:53 PM 82.0 °F 86.3 °F 71.1 °F 69% 30.03 in 10.0 mi ENE 9.2 mph - N/A   Scattered Clouds